When you browse on this site, cookies collect data to enhance your experience and personalize the content and advertising you see.
Visit our Privacy Policy to learn more. By continuing to use the site, you agree to this use of cookies and data.
  • Em Portugal
  • Lista de países
  • Para 7 dias
  • Temperatura da água
  • Mapas de satélite
  • Mapa do tempo
  • Widgets de tempo
  • user-avatar
    Iniciar Sessão

    Previsão horária em Lozenec

    Hoje, 19 Fevereiro, Terça-feira

    Tempo Temperatura Precipitação Vento Pressão Humidade
    00:00 +8°C° 0 mm 1 m/s 765 mmHg 75%
    01:00 +8°C° 0 mm 1 m/s 765 mmHg 76%
    02:00 +8°C° 0 mm 1 m/s 765 mmHg 76%
    03:00 +8°C° 0 mm 1 m/s 765 mmHg 76%
    04:00 +7°C° 0 mm 1 m/s 765 mmHg 77%
    05:00 +7°C° 0 mm 1 m/s 764 mmHg 78%
    06:00 +8°C° 0 mm 1 m/s 765 mmHg 78%
    07:00 +8°C° 0 mm 1 m/s 765 mmHg 79%
    08:00 +7°C° 0 mm 2 m/s 765 mmHg 79%
    09:00 +9°C° 0 mm 2 m/s 765 mmHg 74%
    10:00 +10°C° 0 mm 2 m/s 765 mmHg 69%
    11:00 +12°C° 0 mm 3 m/s 765 mmHg 64%
    12:00 +13°C° 0 mm 3 m/s 764 mmHg 62%
    13:00 +13°C° 0 mm 3 m/s 764 mmHg 61%
    14:00 +14°C° 0 mm 3 m/s 764 mmHg 60%
    15:00 +13°C° 0 mm 3 m/s 764 mmHg 65%
    16:00 +12°C° 0 mm 4 m/s 763 mmHg 69%
    17:00 +11°C° 0 mm 4 m/s 763 mmHg 73%
    18:00 +10°C° 0 mm 4 m/s 763 mmHg 78%
    19:00 +9°C° 0 mm 3 m/s 763 mmHg 83%
    20:00 +8°C° 0 mm 3 m/s 763 mmHg 88%
    21:00 +8°C° 0 mm 3 m/s 763 mmHg 88%
    22:00 +8°C° 0 mm 3 m/s 763 mmHg 88%
    23:00 +8°C° 0 mm 3 m/s 763 mmHg 87%

    Amanhã, 20 Fevereiro, Quarta-feira

    Tempo Temperatura Precipitação Vento Pressão Humidade
    00:00 +8°C° 0 mm 2 m/s 763 mmHg 87%
    01:00 +7°C° 0 mm 2 m/s 762 mmHg 86%
    02:00 +7°C° 0 mm 2 m/s 762 mmHg 85%
    03:00 +7°C° 0 mm 2 m/s 762 mmHg 84%
    04:00 +7°C° 0 mm 2 m/s 762 mmHg 82%
    05:00 +7°C° 0 mm 2 m/s 761 mmHg 81%
    06:00 +7°C° 0 mm 2 m/s 761 mmHg 78%
    07:00 +7°C° 0 mm 2 m/s 761 mmHg 75%
    08:00 +7°C° 0 mm 2 m/s 761 mmHg 72%
    09:00 +9°C° 0 mm 2 m/s 761 mmHg 66%
    10:00 +12°C° 0 mm 2 m/s 761 mmHg 60%
    11:00 +14°C° 0 mm 2 m/s 761 mmHg 53%
    12:00 +15°C° 0 mm 1 m/s 761 mmHg 53%
    13:00 +16°C° 0 mm 1 m/s 761 mmHg 52%
    14:00 +18°C° 0 mm 1 m/s 761 mmHg 51%
    15:00 +16°C° 0 mm 1 m/s 760 mmHg 54%
    16:00 +16°C° 0 mm 1 m/s 760 mmHg 57%
    17:00 +15°C° 0 mm 1 m/s 760 mmHg 60%
    18:00 +14°C° 0 mm 1 m/s 760 mmHg 63%
    19:00 +13°C° 0 mm 2 m/s 761 mmHg 66%
    20:00 +12°C° 0 mm 2 m/s 761 mmHg 69%
    21:00 +10°C° 0 mm 2 m/s 761 mmHg 68%
    22:00 +10°C° 0 mm 3 m/s 762 mmHg 68%
    23:00 +10°C° 0 mm 3 m/s 762 mmHg 68%

    Depois de amanhã, 21 Fevereiro, Quinta-feira

    Tempo Temperatura Precipitação Vento Pressão Humidade
    00:00 +9°C° 0 mm 3 m/s 762 mmHg 69%
    01:00 +8°C° 0 mm 4 m/s 762 mmHg 70%
    02:00 +8°C° 0 mm 4 m/s 763 mmHg 71%
    03:00 +7°C° 0 mm 4 m/s 763 mmHg 72%
    04:00 +7°C° 0 mm 4 m/s 763 mmHg 73%
    05:00 +7°C° 0 mm 4 m/s 763 mmHg 74%
    06:00 +6°C° 0 mm 4 m/s 763 mmHg 75%
    07:00 +6°C° 0 mm 4 m/s 764 mmHg 75%
    08:00 +6°C° 0 mm 4 m/s 764 mmHg 76%
    09:00 +8°C° 0 mm 3 m/s 765 mmHg 73%
    10:00 +9°C° 0 mm 3 m/s 765 mmHg 71%
    11:00 +11°C° 0 mm 3 m/s 765 mmHg 69%
    12:00 +11°C° 0 mm 3 m/s 765 mmHg 68%
    13:00 +12°C° 0 mm 2 m/s 765 mmHg 67%
    14:00 +12°C° 0 mm 2 m/s 765 mmHg 66%
    15:00 +12°C° 0 mm 2 m/s 765 mmHg 67%
    16:00 +12°C° 0 mm 1 m/s 765 mmHg 69%
    17:00 +12°C° 0 mm 1 m/s 765 mmHg 70%
    18:00 +10°C° 0 mm 2 m/s 765 mmHg 75%
    19:00 +9°C° 0 mm 2 m/s 765 mmHg 80%
    20:00 +8°C° 0 mm 2 m/s 765 mmHg 85%
    21:00 +8°C° 0 mm 2 m/s 765 mmHg 85%
    22:00 +8°C° 0 mm 2 m/s 765 mmHg 84%
    23:00 +7°C° 0 mm 2 m/s 765 mmHg 84%

    22 Fevereiro, Sexta-feira

    Tempo Temperatura Precipitação Vento Pressão Humidade
    00:00 +7°C° 0 mm 2 m/s 764 mmHg 83%
    01:00 +7°C° 0 mm 3 m/s 764 mmHg 83%
    02:00 +7°C° 0 mm 3 m/s 764 mmHg 82%
    03:00 +7°C° 0 mm 3 m/s 763 mmHg 83%
    04:00 +7°C° 0 mm 3 m/s 763 mmHg 83%
    05:00 +7°C° 0 mm 3 m/s 762 mmHg 84%
    06:00 +7°C° 0 mm 3 m/s 762 mmHg 82%
    07:00 +7°C° 0 mm 3 m/s 761 mmHg 81%
    08:00 +7°C° 0 mm 4 m/s 761 mmHg 79%
    09:00 +7°C° 0.2 mm 4 m/s 760 mmHg 76%
    10:00 +8°C° 0.2 mm 4 m/s 760 mmHg 72%
    11:00 +8°C° 0.2 mm 4 m/s 760 mmHg 69%
    12:00 +8°C° 0.4 mm 4 m/s 759 mmHg 70%
    13:00 +8°C° 0.4 mm 5 m/s 758 mmHg 71%
    14:00 +8°C° 0.4 mm 5 m/s 758 mmHg 72%
    15:00 +8°C° 0.1 mm 4 m/s 758 mmHg 73%
    16:00 +8°C° 0.1 mm 4 m/s 757 mmHg 74%
    17:00 +8°C° 0.1 mm 4 m/s 757 mmHg 75%
    18:00 +8°C° 0.2 mm 4 m/s 757 mmHg 78%
    19:00 +8°C° 0.2 mm 4 m/s 758 mmHg 81%
    20:00 +7°C° 0.2 mm 5 m/s 758 mmHg 84%
    21:00 +5°C° 0.4 mm 7 m/s 759 mmHg 85%
    22:00 +3°C° 0.4 mm 10 m/s 759 mmHg 86%
    23:00 +1°C° 0.4 mm 13 m/s 760 mmHg 86%

    23 Fevereiro, Sábado

    Tempo Temperatura Precipitação Vento Pressão Humidade
    00:00 0°C° 0.4 mm 13 m/s 760 mmHg 86%
    01:00 -1°C° 0.4 mm 12 m/s 761 mmHg 86%
    02:00 -2°C° 0.4 mm 12 m/s 762 mmHg 86%
    03:00 -3°C° 0.6 mm 12 m/s 762 mmHg 87%
    04:00 -5°C° 0.6 mm 12 m/s 763 mmHg 89%
    05:00 -7°C° 0.6 mm 13 m/s 764 mmHg 90%
    06:00 -7°C° 0.6 mm 12 m/s 764 mmHg 87%
    07:00 -7°C° 0.6 mm 12 m/s 765 mmHg 84%
    08:00 -7°C° 0.6 mm 11 m/s 766 mmHg 82%
    09:00 -7°C° 0.3 mm 11 m/s 766 mmHg 78%
    10:00 -6°C° 0.3 mm 11 m/s 767 mmHg 75%
    11:00 -6°C° 0.3 mm 11 m/s 767 mmHg 71%
    12:00 -6°C° 0.1 mm 11 m/s 767 mmHg 69%
    13:00 -4°C° 0.1 mm 11 m/s 767 mmHg 66%
    14:00 -4°C° 0.1 mm 11 m/s 766 mmHg 64%
    15:00 -4°C° 0 mm 10 m/s 766 mmHg 64%
    16:00 -4°C° 0 mm 10 m/s 767 mmHg 64%
    17:00 -5°C° 0 mm 9 m/s 767 mmHg 64%
    18:00 -5°C° 0.1 mm 10 m/s 767 mmHg 65%
    19:00 -5°C° 0.1 mm 10 m/s 767 mmHg 66%
    20:00 -5°C° 0.1 mm 10 m/s 767 mmHg 67%
    21:00 -5°C° 0.1 mm 10 m/s 767 mmHg 69%
    22:00 -5°C° 0.1 mm 10 m/s 767 mmHg 70%
    23:00 -5°C° 0.1 mm 10 m/s 767 mmHg 71%

    24 Fevereiro, Domingo

    Tempo Temperatura Precipitação Vento Pressão Humidade
    00:00 -7°C° 0.2 mm 10 m/s 766 mmHg 71%
    01:00 -7°C° 0.2 mm 10 m/s 766 mmHg 71%
    02:00 -7°C° 0.2 mm 10 m/s 766 mmHg 71%
    03:00 -7°C° 0.1 mm 10 m/s 766 mmHg 72%
    04:00 -7°C° 0.1 mm 10 m/s 766 mmHg 73%
    05:00 -8°C° 0.1 mm 10 m/s 765 mmHg 73%
    06:00 -8°C° 0.1 mm 11 m/s 766 mmHg 74%
    07:00 -8°C° 0.1 mm 11 m/s 766 mmHg 74%
    08:00 -8°C° 0.1 mm 11 m/s 766 mmHg 75%
    09:00 -7°C° 0.2 mm 11 m/s 766 mmHg 73%
    10:00 -7°C° 0.2 mm 11 m/s 766 mmHg 72%
    11:00 -6°C° 0.2 mm 11 m/s 766 mmHg 71%
    12:00 -6°C° 0.2 mm 11 m/s 766 mmHg 70%
    13:00 -6°C° 0.2 mm 11 m/s 766 mmHg 69%
    14:00 -4°C° 0.2 mm 11 m/s 765 mmHg 68%
    15:00 -4°C° 0.2 mm 11 m/s 765 mmHg 69%
    16:00 -4°C° 0.2 mm 11 m/s 765 mmHg 70%
    17:00 -4°C° 0.2 mm 11 m/s 765 mmHg 72%
    18:00 -6°C° 0.3 mm 11 m/s 765 mmHg 74%
    19:00 -6°C° 0.3 mm 11 m/s 766 mmHg 75%
    20:00 -6°C° 0.3 mm 11 m/s 766 mmHg 77%
    21:00 -6°C° 0.4 mm 11 m/s 766 mmHg 78%
    22:00 -6°C° 0.4 mm 11 m/s 765 mmHg 79%
    23:00 -7°C° 0.4 mm 11 m/s 765 mmHg 80%
    Mostrar mais